Location: Altmatt
(47.1333°N, 8.7000°E)
Time: 08:37:50
(UTC+00:00)

JB-3 - Pass Details

Date: 13 July 2020
Orbit: 525 x 591 km, 97.3° (Epoch: 04 August)

Event Time Altitude Azimuth Distance (km) Brightness Sun altitude
Rises 21:27:17 0° 15° (NNE) 2,674 8.5 -15.8°
Reaches altitude 10° 21:29:26 10° 19° (NNE) 1,778 7.5 -16.0°
Maximum altitude 21:33:13 61° 101° (E) 605 4.3 -16.3°
Enters shadow 21:34:42 34° 167° (SSE) 888 4.8 -16.4°
